Freedom, CA

3:03 AM PST on December 03, 2016 (GMT -0800)
Watsonville Municipal

Weather History for KWVI - December, 2013

Change the Weather History Date:

Tuesday, December 3, 2013

  Actual Average Record
Temperature  
Mean Temperature 48 °F 51 °F  
Max Temperature 60 °F 61 °F 73 °F (2006)
Min Temperature 35 °F 41 °F 28 °F (2004)
Degree Days  
Heating Degree Days 17    
Month to date heating degree days 37  
Since 1 July heating degree days 692  
Cooling Degree Days 0    
Month to date cooling degree days 0  
Year to date cooling degree days 128  
Moisture  
Dew Point 43 °F    
Average Humidity 70    
Maximum Humidity 100    
Minimum Humidity 40    
Precipitation  
Precipitation 0.01 in - 1.37 in (1974)
Month to date precipitation 0.01  
Year to date precipitation 3.22  
Since 1 July precipitation 0.83  
Sea Level Pressure  
Sea Level Pressure 29.92 in    
Wind  
Wind Speed 4 mph (WNW)    
Max Wind Speed 14 mph    
Max Gust Speed 18 mph    
Visibility 6 miles    
Events Fog , Rain    
T = Trace of Precipitation, MM = Missing Value Source: NWS Daily Summary

Daily Weather History Graph

Daily Weather History Graph

Search for Another Location

Airport or City:

Trip Planner

Search our weather history database for the weather conditions in past years. The results will help you decide how hot, cold, wet, or windy it might be!

Date:

Astronomy

Dec. 03, 2013 Rise Set
Actual Time 7:03 AM PST 4:50 PM PST
Civil Twilight 6:35 AM PST 5:19 PM PST
Nautical Twilight 6:02 AM PST 5:51 PM PST
Astronomical Twilight 5:31 AM PST 6:22 PM PST
Moon 7:39 AM PST 5:59 PM PST
Length of Visible Light 10h 43m
Length of Day
9h 46m
New Moon, 1% of the Moon is Illuminated
Dec 3
New Moon
Dec 9
First Quarter
Dec 17
Full
Dec 25
Last Quarter
Jan 1
New

Hourly Weather History & Observations

Time (PST) Temp. Windchill Dew Point Humidity Pressure Visibility Wind Dir Wind Speed Gust Speed Precip Events Conditions
12:53 AM 48.0 °F - 46.0 °F 93% 29.99 in 10.0 mi WNW 3.5 mph - N/A   Partly Cloudy
1:05 AM 46.4 °F - 44.6 °F 93% 30.00 in 10.0 mi Calm Calm - N/A   Mostly Cloudy
1:53 AM 46.9 °F - 46.0 °F 97% 29.97 in 10.0 mi Calm Calm - N/A   Overcast
2:53 AM 50.0 °F - 48.0 °F 93% 29.98 in 7.0 mi NW 3.5 mph - N/A   Overcast
3:53 AM 50.0 °F - 48.9 °F 96% 29.95 in 9.0 mi Calm Calm - N/A   Overcast
4:01 AM 50.0 °F - 48.2 °F 94% 29.95 in 6.0 mi Calm Calm - N/A   Overcast
4:14 AM 50.0 °F - 48.2 °F 94% 29.95 in 4.0 mi Calm Calm - N/A   Overcast
4:23 AM 50.0 °F - 48.2 °F 94% 29.95 in 2.0 mi Calm Calm - 0.01 in Rain Light Rain
4:30 AM 50.0 °F - 48.2 °F 94% 29.95 in 1.8 mi Calm Calm - 0.01 in Rain Light Rain
4:39 AM 50.0 °F - 48.2 °F 94% 29.95 in 2.0 mi Calm Calm - 0.01 in   Overcast
4:46 AM 50.0 °F - 48.2 °F 94% 29.94 in 2.0 mi Calm Calm - 0.01 in   Overcast
4:53 AM 50.0 °F - 48.9 °F 96% 29.94 in 3.0 mi South 3.5 mph - 0.01 in   Overcast
5:37 AM 50.0 °F - 48.2 °F 94% 29.94 in 6.0 mi Calm Calm - N/A   Overcast
5:53 AM 50.0 °F - 48.9 °F 96% 29.94 in 8.0 mi Calm Calm - N/A   Overcast
6:53 AM 50.0 °F - 48.9 °F 96% 29.93 in 8.0 mi Calm Calm - N/A   Overcast
7:19 AM 48.2 °F - 48.2 °F 100% 29.92 in 1.8 mi NNE 4.6 mph - N/A   Mostly Cloudy
7:22 AM 48.2 °F - 48.2 °F 100% 29.92 in 0.8 mi NNE 4.6 mph - N/A   Mostly Cloudy
7:26 AM 48.2 °F - 48.2 °F 100% 29.93 in 0.2 mi Calm Calm - N/A Fog Fog
7:38 AM 50.0 °F - 48.2 °F 94% 29.93 in 1.0 mi Calm Calm - N/A   Mostly Cloudy
7:41 AM 50.0 °F - 48.2 °F 94% 29.93 in 2.5 mi Calm Calm - N/A   Overcast
7:46 AM 50.0 °F - 48.2 °F 94% 29.93 in 3.0 mi Calm Calm - N/A   Overcast
7:49 AM 50.0 °F - 48.2 °F 94% 29.93 in 1.8 mi Calm Calm - N/A   Overcast
7:53 AM 50.0 °F - 48.9 °F 96% 29.93 in 0.8 mi Calm Calm - N/A   Overcast
8:07 AM 50.0 °F - 48.2 °F 94% 29.92 in 1.5 mi Calm Calm - N/A   Overcast
8:20 AM 51.8 °F - 50.0 °F 94% 29.93 in 1.2 mi ESE 4.6 mph - N/A   Mostly Cloudy
8:24 AM 51.8 °F - 50.0 °F 94% 29.92 in 2.0 mi East 4.6 mph - N/A   Mostly Cloudy
8:28 AM 51.8 °F - 51.8 °F 100% 29.93 in 6.0 mi SE 3.5 mph - N/A   Mostly Cloudy
8:53 AM 54.0 °F - 46.0 °F 75% 29.93 in 10.0 mi Calm Calm - N/A   Clear
9:53 AM 57.0 °F - 36.0 °F 45% 29.92 in 10.0 mi West 5.8 mph - N/A   Clear
10:53 AM 55.9 °F - 36.0 °F 47% 29.91 in 10.0 mi WSW 12.7 mph - N/A   Clear
11:53 AM 55.9 °F - 34.0 °F 44% 29.88 in 10.0 mi West 9.2 mph - N/A   Mostly Cloudy
12:53 PM 55.9 °F - 32.0 °F 40% 29.86 in 10.0 mi WSW 8.1 mph - N/A   Overcast
1:53 PM 57.0 °F - 33.1 °F 40% 29.85 in 10.0 mi SW 6.9 mph - N/A   Mostly Cloudy
2:53 PM 55.9 °F - 32.0 °F 40% 29.85 in 10.0 mi West 5.8 mph - N/A   Mostly Cloudy
3:53 PM 53.1 °F - 33.1 °F 47% 29.85 in 10.0 mi West 10.4 mph - N/A   Clear
4:53 PM 50.0 °F - 32.0 °F 50% 29.86 in 10.0 mi NNW 3.5 mph - N/A   Clear
5:53 PM 46.0 °F 44.8 °F 30.9 °F 56% 29.87 in 10.0 mi West 3.5 mph - N/A   Clear
6:53 PM 45.0 °F 43.5 °F 32.0 °F 60% 29.89 in 10.0 mi NNW 3.5 mph - N/A   Clear
7:53 PM 43.0 °F 41.3 °F 32.0 °F 65% 29.89 in 10.0 mi NW 3.5 mph - N/A   Clear
8:53 PM 37.9 °F - 32.0 °F 79% 29.90 in 10.0 mi Calm Calm - N/A   Clear
9:53 PM 37.9 °F 33.5 °F 32.0 °F 79% 29.92 in 10.0 mi NW 5.8 mph - N/A   Clear
10:53 PM 37.0 °F - 30.9 °F 79% 29.93 in 10.0 mi Calm Calm - N/A   Clear
11:53 PM 36.0 °F 32.1 °F 30.9 °F 82% 29.95 in 10.0 mi NW 4.6 mph - N/A   Clear